Regional Weather Roundup
Issued by NWS

Home | Current Version | Previous Version | Graphics & Text | Print | Product List | Glossary Off
Versions: 1 2 3 4 5 6 7 8 9 10 11 12 13 14 15 16 17 18 19 20 21 22 23 24 25 26 27 28 29 30 31 32 33 34 35 36 37 38 39 40 41 42 43 44 45 46 47 48 49 50

000
ASUS43 KFSD 190010
RWRSD

WEATHER ROUNDUP FOR SOUTH DAKOTA
NATIONAL WEATHER SERVICE SIOUX FALLS SD
600 PM CST THU JAN 18 2018

NOTE: "FAIR" INDICATES FEW OR NO CLOUDS BELOW 12,000 FEET WITH NO
SIGNIFICANT WEATHER AND/OR OBSTRUCTIONS TO VISIBILITY.


SDZ001>005-009-010-012>017-190100-
NORTHWEST AND NORTH CENTRAL SOUTH DAKOTA

CITY           SKY/WX    TMP DP  RH WIND       PRES   REMARKS
BUFFALO          N/A     40  28  62 W6        29.67S
FAITH            N/A     37  30  75 S12       29.74S
MOBRIDGE       CLOUDY    35  27  72 SE8       29.70F WCI  29
$$

SDZ012>016-024>037-041>051-057-063-072>074-190100-
SOUTHWEST AND SOUTH CENTRAL SOUTH DAKOTA

CITY           SKY/WX    TMP DP  RH WIND       PRES   REMARKS
RAPID CTY ARPT CLOUDY    45  26  47 VRB3      29.75F
PIERRE         CLOUDY    33  26  75 SE6       29.76F WCI  28
CUSTER         CLOUDY    45  21  38 W13G20    29.85S
ELLSWORTH AFB  CLOUDY    44  26  50 SW6       29.74F
PHILIP         CLOUDY    42  29  59 CALM      29.76F
PINE RIDGE     CLOUDY    40  28  62 SW7       29.83F
SPEARFISH        N/A     55  21  26 NW5       29.76S
WINNER         FAIR      44  31  60 SW10      29.80F
$$

SDZ004>011-016>023-039-040-190100-
NORTHEAST SOUTH DAKOTA

CITY           SKY/WX    TMP DP  RH WIND       PRES   REMARKS
ABERDEEN       MOCLDY    32  27  81 S6        29.75S WCI  26
WATERTOWN      CLOUDY    32  27  81 CALM      29.75F
BROOKINGS      CLOUDY    33  28  81 S8        29.78F WCI  26
SISSETON         N/A     35  25  66 VRB3      29.73F
$$

SDZ017-020-022-023-036>040-048>070-190100-
SOUTHEAST SOUTH DAKOTA

CITY           SKY/WX    TMP DP  RH WIND       PRES   REMARKS
SIOUX FALLS    CLOUDY    36  29  75 SW5       29.82F
HURON          CLOUDY    34  30  85 S7        29.78S WCI  28
CHAMBERLAIN    CLOUDY    36  32  86 CALM      29.79S
MITCHELL       CLOUDY    37  31  78 S6        29.80F
YANKTON        CLOUDY    38  27  64 CALM      29.84F
$$

ABBREVIATIONS USED IN REMARKS
   TC - TEMPERATURE IN CELSIUS
  WCI - WIND CHILL INDEX
   HX - HEAT INDEX
  VSB - VISIBILITY





USA.gov is the U.S. government's official web portal to all federal, state and local government web resources and services.